AirNav   Phillips 66 Aviation Fuel
 
 325 users online  

4IN5 Ball Field Airport
Bourbon, Indiana, USA

GOING TO BOURBON?


FAA INFORMATION EFFECTIVE 07 DECEMBER 2017

Location

FAA Identifier: 4IN5
Lat/Long: 41-20-39.0000N / 086-08-54.0000W
41-20.650000N / 086-08.900000W
41.3441667 / -86.1483333
(estimated)
Elevation: 825 ft. / 251 m (estimated)
Variation: 03W (1995)
From city: 4 miles NW of BOURBON, IN
Time zone: UTC -5 (UTC -4 during Daylight Saving Time)
Zip code: 46504

Airport Operations

Airport use: Private use. Permission required prior to landing
Activation date: 09/1999
Control tower: no
ARTCC: CHICAGO CENTER
FSS: TERRE HAUTE FLIGHT SERVICE STATION
Attendance: UNATNDD
Segmented circle: no

Airport Communications

WX AWOS-3 at C65 (7 nm W): 133.025 (574-935-3854)
WX AWOS-3 at ASW (15 nm E): 121.125 (574-269-7035)
WX AWOS-3 at RCR (17 nm S): 118.775 (574-223-3560)
WX ASOS at GSH (19 nm NE): 121.45 (574-642-4231)

Nearby radio navigation aids

VOR radial/distance  VOR name  Freq  Var
GSHr207/12.1GOSHEN VORTAC113.7000E
OXIr087/22.6KNOX VOR/DME115.6000E
GIJr163/26.6GIPPER VORTAC115.4000E
OLKr284/(29.9)WEBSTER LAKE VOR110.4003W

 
NDB name  Hdg/Dist  Freq  Var  ID
LA PORTE111/29.535603WIUL .. ..- .-..

Airport Services

Runway Information

Runway N/S

Dimensions: 1700 x 70 ft. / 518 x 21 m
Surface: turf
RUNWAY N  RUNWAY S
Traffic pattern: leftleft
Obstructions: none32 ft. bldg, 65 ft. from runway

Airport Ownership and Management from official FAA records

Ownership: Privately-owned
Owner: DARYL BALL
4682 9B ROAD
BOURBON, IN 46504
Phone 219-342-8299
Manager: DARYL BALL
4682 9B ROAD
BOURBON, IN 46504
Phone 219-342-8299

Airport Operational Statistics

Aircraft based on the field: 1
Single engine airplanes: 1
    

Instrument Procedures

There are no published instrument procedures at 4IN5.

Some nearby airports with instrument procedures:

C65 - Plymouth Municipal Airport (7 nm W)
C03 - Nappanee Municipal Airport (11 nm NE)
KASW - Warsaw Municipal Airport (15 nm E)
KRCR - Fulton County Airport (17 nm S)
KGSH - Goshen Municipal Airport (19 nm NE)
 
Loc | Ops | Rwys | IFR | FBO | Links
Com | Nav | Svcs | Stats | Notes


 
Area around 4IN5 (Ball Field Airport)
 
Road maps at: MapQuest Bing Google
 
Aerial photo
No photo
 
Sectional chart

 
Airport distance calculator
Flying to Ball Field Airport? Find the distance to fly.

From to 4IN5

Sunrise and sunset
Times for 17-Dec-2017
 Local
(UTC-5)
 Zulu
(UTC)
Morning civil twilight07:3512:35
Sunrise08:0613:06
Sunset17:1622:16
Evening civil twilight17:4722:47

Current date and time
Zulu (UTC)  17-Dec-2017 09:36:04
Local (UTC-5)  17-Dec-2017 04:36:04
 
METAR
KASW 
15nm E 
170915Z AUTO 00000KT 10SM CLR 00/M02 A3009 RMK AO2
KRCR 
17nm S 
170915Z AUTO 14003KT 10SM CLR 00/M02 A3008 RMK AO2
KGSH 
20nm NE 
170853Z AUTO 11003KT 9SM CLR M01/M04 A3009 RMK AO2 SLP197 T10111039 53004
KSBN 
23nm N 
170854Z AUTO 10003KT 8SM CLR M03/M03 A3009 RMK AO2 SLP199 T10281033 53006
KOXI 
23nm W 
170915Z AUTO 00000KT 10SM CLR M01/M02 A3007 RMK AO1
KEKM 
23nm N 
162248Z 08003KT 10SM CLR 01/M03 A3000 RMK LAST
TAF
KSBN 
23nm N 
170539Z 1706/1806 10004KT P6SM OVC250 TEMPO 1709/1713 4SM BR FM171700 19008KT P6SM BKN150 FM180100 21006KT P6SM SCT008 OVC030 FM180300 21006KT P6SM OVC008
NOTAMs
Click for the latest NOTAMs
NOTAMs are issued by the DoD/FAA and will open in a separate window not controlled by AirNav.

 

 
 

Would you like to see your business listed on this page?

 If your business provides an interesting product or service to pilots, flight crews, aircraft, or users of the Ball Field Airport, you should consider listing it here.  To start the listing process, click on the button below
 
Add a business
 

Other Pages about Ball Field Airport

Update a link
 
Copyright © AirNav, LLC. All rights reserved. Privacy Policy  Contact